Time,TemperatureF,DewpointF,PressureIn,WindDirection,WindDirectionDegrees,WindSpeedMPH,WindSpeedGustMPH,Humidity,HourlyPrecipIn,Conditions,Clouds,dailyrainin,SoftwareType,DateUTC
2013-04-28 00:03:00,76.0,-99.9,30.13,ESE,104,13.0,21.0,-999,-99.99,,,-99.99,,2013-04-28 04:03:00,
2013-04-28 00:13:00,76.0,-99.9,30.13,ESE,102,15.0,19.0,-999,-99.99,,,-99.99,,2013-04-28 04:13:00,
2013-04-28 00:23:00,75.0,-99.9,30.12,ESE,107,11.0,17.0,-999,-99.99,,,-99.99,,2013-04-28 04:23:00,
2013-04-28 00:32:00,75.0,-99.9,30.12,ESE,110,11.0,16.0,-999,-99.99,,,-99.99,,2013-04-28 04:32:00,
2013-04-28 00:43:00,75.0,-99.9,30.12,ESE,113,12.0,20.0,-999,-99.99,,,-99.99,,2013-04-28 04:43:00,
2013-04-28 00:53:00,75.0,-99.9,30.11,ESE,111,12.0,18.0,-999,-99.99,,,-99.99,,2013-04-28 04:53:00,
2013-04-28 01:02:00,74.0,-99.9,30.12,ESE,116,14.0,19.0,-999,-99.99,,,-99.99,,2013-04-28 05:02:00,
2013-04-28 01:12:00,74.0,-99.9,30.11,SE,124,14.0,22.0,-999,-99.99,,,-99.99,,2013-04-28 05:12:00,
2013-04-28 01:22:00,74.0,-99.9,30.11,SE,125,16.0,20.0,-999,-99.99,,,-99.99,,2013-04-28 05:22:00,
2013-04-28 01:32:00,74.0,-99.9,30.11,SE,124,15.0,21.0,-999,-99.99,,,-99.99,,2013-04-28 05:32:00,
2013-04-28 01:42:00,74.0,-99.9,30.11,SE,128,15.0,22.0,-999,-99.99,,,-99.99,,2013-04-28 05:42:00,
2013-04-28 01:52:00,74.0,-99.9,30.11,SE,124,15.0,20.0,-999,-99.99,,,-99.99,,2013-04-28 05:52:00,
2013-04-28 02:02:00,74.0,-99.9,30.11,SE,130,14.0,20.0,-999,-99.99,,,-99.99,,2013-04-28 06:02:00,
2013-04-28 02:13:00,74.0,-99.9,30.10,ESE,123,13.0,19.0,-999,-99.99,,,-99.99,,2013-04-28 06:13:00,
2013-04-28 02:22:00,73.0,-99.9,30.10,SE,124,11.0,16.0,-999,-99.99,,,-99.99,,2013-04-28 06:22:00,
2013-04-28 02:32:00,73.0,-99.9,30.10,ESE,119,12.0,14.0,-999,-99.99,,,-99.99,,2013-04-28 06:32:00,
2013-04-28 02:42:00,73.0,-99.9,30.10,ESE,123,11.0,15.0,-999,-99.99,,,-99.99,,2013-04-28 06:42:00,
2013-04-28 02:52:00,73.0,-99.9,30.09,ESE,123,11.0,14.0,-999,-99.99,,,-99.99,,2013-04-28 06:52:00,
2013-04-28 03:02:00,73.0,-99.9,30.09,ESE,120,11.0,16.0,-999,-99.99,,,-99.99,,2013-04-28 07:02:00,
2013-04-28 03:11:00,73.0,-99.9,30.09,ESE,123,13.0,17.0,-999,-99.99,,,-99.99,,2013-04-28 07:11:00,
2013-04-28 03:22:00,73.0,-99.9,30.09,SE,127,12.0,17.0,-999,-99.99,,,-99.99,,2013-04-28 07:22:00,
2013-04-28 03:32:00,73.0,-99.9,30.08,SE,125,13.0,18.0,-999,-99.99,,,-99.99,,2013-04-28 07:32:00,
2013-04-28 03:42:00,73.0,-99.9,30.08,SE,128,11.0,18.0,-999,-99.99,,,-99.99,,2013-04-28 07:42:00,
2013-04-28 03:52:00,73.0,-99.9,30.07,ESE,121,12.0,16.0,-999,-99.99,,,-99.99,,2013-04-28 07:52:00,
2013-04-28 04:02:00,72.0,-99.9,30.07,SE,131,11.0,15.0,-999,-99.99,,,-99.99,,2013-04-28 08:02:00,
2013-04-28 04:12:00,72.0,-99.9,30.06,SE,126,11.0,17.0,-999,-99.99,,,-99.99,,2013-04-28 08:12:00,
2013-04-28 04:22:00,72.0,-99.9,30.06,SE,131,9.0,12.0,-999,-99.99,,,-99.99,,2013-04-28 08:22:00,
2013-04-28 04:32:00,72.0,-99.9,30.06,SE,129,11.0,15.0,-999,-99.99,,,-99.99,,2013-04-28 08:32:00,
2013-04-28 04:42:00,72.0,-99.9,30.06,SE,124,11.0,15.0,-999,-99.99,,,-99.99,,2013-04-28 08:42:00,
2013-04-28 04:52:00,72.0,-99.9,30.06,SE,127,11.0,20.0,-999,-99.99,,,-99.99,,2013-04-28 08:52:00,
2013-04-28 05:01:00,72.0,-99.9,30.06,SE,126,14.0,19.0,-999,-99.99,,,-99.99,,2013-04-28 09:01:00,
2013-04-28 05:12:00,72.0,-99.9,30.06,SE,131,14.0,18.0,-999,-99.99,,,-99.99,,2013-04-28 09:12:00,
2013-04-28 05:22:00,72.0,-99.9,30.06,SE,129,11.0,17.0,-999,-99.99,,,-99.99,,2013-04-28 09:22:00,
2013-04-28 05:33:00,72.0,-99.9,30.06,SE,133,12.0,17.0,-999,-99.99,,,-99.99,,2013-04-28 09:33:00,
2013-04-28 05:43:00,72.0,-99.9,30.06,SE,127,13.0,19.0,-999,-99.99,,,-99.99,,2013-04-28 09:43:00,
2013-04-28 05:53:00,72.0,-99.9,30.06,SE,131,12.0,17.0,-999,-99.99,,,-99.99,,2013-04-28 09:53:00,
2013-04-28 06:03:00,72.0,-99.9,30.06,SE,130,9.0,14.0,-999,-99.99,,,-99.99,,2013-04-28 10:03:00,
2013-04-28 06:12:00,71.0,-99.9,30.06,SE,130,9.0,13.0,-999,-99.99,,,-99.99,,2013-04-28 10:12:00,
2013-04-28 06:23:00,71.0,-99.9,30.06,SE,125,7.0,12.0,-999,-99.99,,,-99.99,,2013-04-28 10:23:00,
2013-04-28 06:32:00,71.0,-99.9,30.05,SE,126,9.0,12.0,-999,-99.99,,,-99.99,,2013-04-28 10:32:00,
2013-04-28 06:42:00,71.0,-99.9,30.06,SE,127,8.0,11.0,-999,-99.99,,,-99.99,,2013-04-28 10:42:00,
2013-04-28 06:53:00,71.0,-99.9,30.06,SE,131,6.0,10.0,-999,-99.99,,,-99.99,,2013-04-28 10:53:00,
2013-04-28 07:02:00,71.0,-99.9,30.06,SE,136,6.0,9.0,-999,-99.99,,,-99.99,,2013-04-28 11:02:00,
2013-04-28 07:11:00,71.0,-99.9,30.07,SE,127,6.0,9.0,-999,-99.99,,,-99.99,,2013-04-28 11:11:00,
2013-04-28 07:22:00,71.0,-99.9,30.07,SE,125,6.0,8.0,-999,-99.99,,,-99.99,,2013-04-28 11:22:00,
2013-04-28 07:32:00,71.0,-99.9,30.07,SE,131,5.0,10.0,-999,-99.99,,,-99.99,,2013-04-28 11:32:00,
2013-04-28 07:42:00,71.0,-99.9,30.07,SE,132,6.0,11.0,-999,-99.99,,,-99.99,,2013-04-28 11:42:00,
2013-04-28 07:52:00,71.0,-99.9,30.08,SE,132,10.0,12.0,-999,-99.99,,,-99.99,,2013-04-28 11:52:00,
2013-04-28 08:02:00,71.0,-99.9,30.08,SE,125,7.0,11.0,-999,-99.99,,,-99.99,,2013-04-28 12:02:00,
2013-04-28 08:12:00,71.0,-99.9,30.09,SE,132,9.0,11.0,-999,-99.99,,,-99.99,,2013-04-28 12:12:00,
2013-04-28 08:22:00,71.0,-99.9,30.09,SE,127,9.0,12.0,-999,-99.99,,,-99.99,,2013-04-28 12:22:00,
2013-04-28 08:32:00,72.0,-99.9,30.09,SE,129,9.0,13.0,-999,-99.99,,,-99.99,,2013-04-28 12:32:00,
2013-04-28 08:42:00,72.0,-99.9,30.09,SE,131,10.0,15.0,-999,-99.99,,,-99.99,,2013-04-28 12:42:00,
2013-04-28 08:52:00,72.0,-99.9,30.09,SE,134,9.0,16.0,-999,-99.99,,,-99.99,,2013-04-28 12:52:00,
2013-04-28 09:02:00,72.0,-99.9,30.10,ESE,116,9.0,13.0,-999,-99.99,,,-99.99,,2013-04-28 13:02:00,
2013-04-28 09:11:00,72.0,-99.9,30.10,ESE,120,10.0,14.0,-999,-99.99,,,-99.99,,2013-04-28 13:11:00,
2013-04-28 09:22:00,73.0,-99.9,30.10,ESE,123,10.0,14.0,-999,-99.99,,,-99.99,,2013-04-28 13:22:00,
2013-04-28 09:32:00,73.0,-99.9,30.10,SE,127,8.0,12.0,-999,-99.99,,,-99.99,,2013-04-28 13:32:00,
2013-04-28 09:42:00,74.0,-99.9,30.10,SE,125,9.0,12.0,-999,-99.99,,,-99.99,,2013-04-28 13:42:00,
2013-04-28 09:52:00,74.0,-99.9,30.10,SE,128,9.0,17.0,-999,-99.99,,,-99.99,,2013-04-28 13:52:00,
2013-04-28 10:02:00,74.0,-99.9,30.10,SE,130,13.0,19.0,-999,-99.99,,,-99.99,,2013-04-28 14:02:00,
2013-04-28 10:11:00,74.0,-99.9,30.10,SE,136,11.0,16.0,-999,-99.99,,,-99.99,,2013-04-28 14:11:00,
2013-04-28 10:22:00,75.0,-99.9,30.10,SE,132,11.0,17.0,-999,-99.99,,,-99.99,,2013-04-28 14:22:00,
2013-04-28 10:32:00,75.0,-99.9,30.10,SE,135,11.0,15.0,-999,-99.99,,,-99.99,,2013-04-28 14:32:00,
2013-04-28 10:42:00,75.0,-99.9,30.10,SE,138,11.0,14.0,-999,-99.99,,,-99.99,,2013-04-28 14:42:00,
2013-04-28 10:52:00,76.0,-99.9,30.11,SE,146,7.0,12.0,-999,-99.99,,,-99.99,,2013-04-28 14:52:00,
2013-04-28 11:02:00,76.0,-99.9,30.11,SE,140,9.0,14.0,-999,-99.99,,,-99.99,,2013-04-28 15:02:00,
2013-04-28 11:12:00,76.0,-99.9,30.11,ESE,122,10.0,13.0,-999,-99.99,,,-99.99,,2013-04-28 15:12:00,
2013-04-28 11:22:00,77.0,-99.9,30.11,SE,128,8.0,13.0,-999,-99.99,,,-99.99,,2013-04-28 15:22:00,
2013-04-28 11:33:00,77.0,-99.9,30.11,SE,138,9.0,12.0,-999,-99.99,,,-99.99,,2013-04-28 15:33:00,
2013-04-28 11:43:00,77.0,-99.9,30.10,SSE,150,11.0,15.0,-999,-99.99,,,-99.99,,2013-04-28 15:43:00,
2013-04-28 11:53:00,77.0,-99.9,30.10,SE,126,11.0,14.0,-999,-99.99,,,-99.99,,2013-04-28 15:53:00,
2013-04-28 12:03:00,77.0,-99.9,30.10,SE,146,10.0,13.0,-999,-99.99,,,-99.99,,2013-04-28 16:03:00,
2013-04-28 12:13:00,78.0,-99.9,30.09,SE,144,10.0,14.0,-999,-99.99,,,-99.99,,2013-04-28 16:13:00,
2013-04-28 12:23:00,78.0,-99.9,30.09,SSE,163,11.0,16.0,-999,-99.99,,,-99.99,,2013-04-28 16:23:00,
2013-04-28 12:33:00,78.0,-99.9,30.09,SE,146,11.0,16.0,-999,-99.99,,,-99.99,,2013-04-28 16:33:00,
2013-04-28 12:43:00,78.0,-99.9,30.09,SSE,162,10.0,17.0,-999,-99.99,,,-99.99,,2013-04-28 16:43:00,
2013-04-28 12:53:00,78.0,-99.9,30.08,SSE,156,12.0,16.0,-999,-99.99,,,-99.99,,2013-04-28 16:53:00,
2013-04-28 13:02:00,79.0,-99.9,30.08,SSE,154,12.0,17.0,-999,-99.99,,,-99.99,,2013-04-28 17:02:00,
2013-04-28 13:12:00,79.0,-99.9,30.07,SSE,160,11.0,19.0,-999,-99.99,,,-99.99,,2013-04-28 17:12:00,
2013-04-28 13:22:00,80.0,-99.9,30.06,SE,127,11.0,15.0,-999,-99.99,,,-99.99,,2013-04-28 17:22:00,
2013-04-28 13:32:00,80.0,-99.9,30.06,ESE,113,11.0,16.0,-999,-99.99,,,-99.99,,2013-04-28 17:32:00,
2013-04-28 13:43:00,80.0,-99.9,30.06,SE,140,8.0,14.0,-999,-99.99,,,-99.99,,2013-04-28 17:43:00,
2013-04-28 13:52:00,80.0,-99.9,30.06,SSE,150,12.0,17.0,-999,-99.99,,,-99.99,,2013-04-28 17:52:00,
2013-04-28 14:02:00,80.0,-99.9,30.05,ESE,107,10.0,14.0,-999,-99.99,,,-99.99,,2013-04-28 18:02:00,
2013-04-28 14:12:00,80.0,-99.9,30.05,SE,126,11.0,17.0,-999,-99.99,,,-99.99,,2013-04-28 18:12:00,
2013-04-28 14:22:00,81.0,-99.9,30.05,SE,132,6.0,15.0,-999,-99.99,,,-99.99,,2013-04-28 18:22:00,
2013-04-28 14:32:00,81.0,-99.9,30.05,SSE,150,7.0,14.0,-999,-99.99,,,-99.99,,2013-04-28 18:32:00,
2013-04-28 14:42:00,81.0,-99.9,30.05,SE,124,8.0,11.0,-999,-99.99,,,-99.99,,2013-04-28 18:42:00,
2013-04-28 14:52:00,81.0,-99.9,30.04,SE,130,9.0,13.0,-999,-99.99,,,-99.99,,2013-04-28 18:52:00,
2013-04-28 15:02:00,81.0,-99.9,30.03,ESE,109,8.0,11.0,-999,-99.99,,,-99.99,,2013-04-28 19:02:00,
2013-04-28 15:11:00,81.0,-99.9,30.03,SE,132,9.0,14.0,-999,-99.99,,,-99.99,,2013-04-28 19:11:00,
2013-04-28 15:22:00,78.0,-99.9,30.02,WSW,251,6.0,11.0,-999,-99.99,,,-99.99,,2013-04-28 19:22:00,
2013-04-28 15:32:00,76.0,-99.9,30.02,West,266,8.0,11.0,-999,-99.99,,,-99.99,,2013-04-28 19:32:00,
2013-04-28 15:42:00,76.0,-99.9,30.02,West,270,10.0,13.0,-999,-99.99,,,-99.99,,2013-04-28 19:42:00,
2013-04-28 15:52:00,76.0,-99.9,30.02,West,261,9.0,13.0,-999,-99.99,,,-99.99,,2013-04-28 19:52:00,
2013-04-28 16:02:00,76.0,-99.9,30.01,West,263,7.0,10.0,-999,-99.99,,,-99.99,,2013-04-28 20:02:00,
2013-04-28 16:12:00,76.0,-99.9,30.01,West,270,9.0,11.0,-999,-99.99,,,-99.99,,2013-04-28 20:12:00,
2013-04-28 16:22:00,76.0,-99.9,30.01,West,276,10.0,11.0,-999,-99.99,,,-99.99,,2013-04-28 20:22:00,
2013-04-28 16:33:00,76.0,-99.9,30.01,West,272,12.0,13.0,-999,-99.99,,,-99.99,,2013-04-28 20:33:00,
2013-04-28 16:42:00,76.0,-99.9,30.01,West,270,10.0,13.0,-999,-99.99,,,-99.99,,2013-04-28 20:42:00,
2013-04-28 16:52:00,76.0,-99.9,30.01,West,276,12.0,13.0,-999,-99.99,,,-99.99,,2013-04-28 20:52:00,
2013-04-28 17:01:00,76.0,-99.9,30.00,WNW,283,11.0,13.0,-999,-99.99,,,-99.99,,2013-04-28 21:01:00,
2013-04-28 17:12:00,76.0,-99.9,30.00,West,272,10.0,11.0,-999,-99.99,,,-99.99,,2013-04-28 21:12:00,
2013-04-28 17:22:00,76.0,-99.9,29.99,West,272,9.0,10.0,-999,-99.99,,,-99.99,,2013-04-28 21:22:00,
2013-04-28 17:33:00,76.0,-99.9,29.99,West,277,11.0,13.0,-999,-99.99,,,-99.99,,2013-04-28 21:33:00,
2013-04-28 17:43:00,76.0,-99.9,29.99,West,267,11.0,14.0,-999,-99.99,,,-99.99,,2013-04-28 21:43:00,
2013-04-28 17:53:00,75.0,-99.9,29.99,West,274,13.0,15.0,-999,-99.99,,,-99.99,,2013-04-28 21:53:00,
2013-04-28 18:03:00,75.0,-99.9,30.00,NW,304,10.0,13.0,-999,-99.99,,,-99.99,,2013-04-28 22:03:00,
2013-04-28 18:13:00,75.0,-99.9,30.00,West,276,11.0,12.0,-999,-99.99,,,-99.99,,2013-04-28 22:13:00,
2013-04-28 18:23:00,75.0,-99.9,29.99,West,269,7.0,10.0,-999,-99.99,,,-99.99,,2013-04-28 22:23:00,
2013-04-28 18:34:00,75.0,-99.9,29.99,WNW,300,7.0,9.0,-999,-99.99,,,-99.99,,2013-04-28 22:34:00,
2013-04-28 18:43:00,75.0,-99.9,29.99,West,280,6.0,8.0,-999,-99.99,,,-99.99,,2013-04-28 22:43:00,
2013-04-28 18:53:00,75.0,-99.9,29.98,WNW,300,8.0,9.0,-999,-99.99,,,-99.99,,2013-04-28 22:53:00,
2013-04-28 19:02:00,75.0,-99.9,29.98,WNW,285,8.0,9.0,-999,-99.99,,,-99.99,,2013-04-28 23:02:00,
2013-04-28 19:12:00,75.0,-99.9,29.98,NW,313,8.0,9.0,-999,-99.99,,,-99.99,,2013-04-28 23:12:00,
2013-04-28 19:22:00,75.0,-99.9,29.98,WNW,292,8.0,10.0,-999,-99.99,,,-99.99,,2013-04-28 23:22:00,
2013-04-28 19:32:00,75.0,-99.9,29.98,NW,313,7.0,9.0,-999,-99.99,,,-99.99,,2013-04-28 23:32:00,
2013-04-28 19:42:00,75.0,-99.9,29.98,NNW,331,7.0,9.0,-999,-99.99,,,-99.99,,2013-04-28 23:42:00,
2013-04-28 19:52:00,75.0,-99.9,29.98,WNW,299,6.0,9.0,-999,-99.99,,,-99.99,,2013-04-28 23:52:00,
2013-04-28 20:01:00,75.0,-99.9,29.98,NW,326,6.0,8.0,-999,-99.99,,,-99.99,,2013-04-29 00:01:00,
2013-04-28 20:11:00,75.0,-99.9,29.98,NW,323,6.0,8.0,-999,-99.99,,,-99.99,,2013-04-29 00:11:00,
2013-04-28 20:22:00,75.0,-99.9,29.98,North,351,8.0,9.0,-999,-99.99,,,-99.99,,2013-04-29 00:22:00,
2013-04-28 20:32:00,75.0,-99.9,29.98,NNW,331,6.0,7.0,-999,-99.99,,,-99.99,,2013-04-29 00:32:00,
2013-04-28 20:42:00,75.0,-99.9,29.98,North,354,9.0,10.0,-999,-99.99,,,-99.99,,2013-04-29 00:42:00,
2013-04-28 20:52:00,75.0,-99.9,29.98,North,352,8.0,9.0,-999,-99.99,,,-99.99,,2013-04-29 00:52:00,
2013-04-28 21:01:00,75.0,-99.9,29.98,NNW,343,6.0,9.0,-999,-99.99,,,-99.99,,2013-04-29 01:01:00,
2013-04-28 21:12:00,75.0,-99.9,29.98,NW,320,4.0,5.0,-999,-99.99,,,-99.99,,2013-04-29 01:12:00,
2013-04-28 21:22:00,75.0,-99.9,29.98,North,355,7.0,8.0,-999,-99.99,,,-99.99,,2013-04-29 01:22:00,
2013-04-28 21:32:00,75.0,-99.9,29.98,NNW,347,4.0,6.0,-999,-99.99,,,-99.99,,2013-04-29 01:32:00,
2013-04-28 21:42:00,75.0,-99.9,29.98,North,356,6.0,7.0,-999,-99.99,,,-99.99,,2013-04-29 01:42:00,
2013-04-28 21:52:00,75.0,-99.9,29.98,NNE,18,5.0,6.0,-999,-99.99,,,-99.99,,2013-04-29 01:52:00,
2013-04-28 22:02:00,75.0,-99.9,29.98,NNE,18,5.0,6.0,-999,-99.99,,,-99.99,,2013-04-29 02:02:00,
2013-04-28 22:11:00,76.0,-99.9,29.99,North,10,7.0,8.0,-999,-99.99,,,-99.99,,2013-04-29 02:11:00,
2013-04-28 22:22:00,76.0,-99.9,29.99,North,2,7.0,8.0,-999,-99.99,,,-99.99,,2013-04-29 02:22:00,
2013-04-28 22:32:00,76.0,-99.9,30.00,NNE,23,8.0,10.0,-999,-99.99,,,-99.99,,2013-04-29 02:32:00,
2013-04-28 22:42:00,75.0,-99.9,30.00,NNE,26,8.0,9.0,-999,-99.99,,,-99.99,,2013-04-29 02:42:00,
2013-04-28 22:52:00,75.0,-99.9,30.01,NNE,20,9.0,10.0,-999,-99.99,,,-99.99,,2013-04-29 02:52:00,
2013-04-28 23:02:00,75.0,-99.9,30.01,NNE,31,7.0,11.0,-999,-99.99,,,-99.99,,2013-04-29 03:02:00,
2013-04-28 23:12:00,75.0,-99.9,30.01,NNE,26,9.0,10.0,-999,-99.99,,,-99.99,,2013-04-29 03:12:00,
2013-04-28 23:22:00,75.0,-99.9,30.01,NE,49,6.0,8.0,-999,-99.99,,,-99.99,,2013-04-29 03:22:00,
2013-04-28 23:33:00,75.0,-99.9,30.01,ENE,59,5.0,7.0,-999,-99.99,,,-99.99,,2013-04-29 03:33:00,
2013-04-28 23:43:00,75.0,-99.9,30.01,NE,55,3.0,8.0,-999,-99.99,,,-99.99,,2013-04-29 03:43:00,
2013-04-28 23:53:00,76.0,-99.9,30.02,ENE,74,4.0,6.0,-999,-99.99,,,-99.99,,2013-04-29 03:53:00,